EW8032 Weather Reports


time (UTC)temp
C
wind
direction
speed
KPH
gust
KPH
rain 1hr
cm
rain 24hr
cm
rain mn
cm
humidity
%
barometer
mb
20260510065952 13 84 0.0 0.0 0.00 0.61 0.28 98 1008.5
20260510065926 13 84 0.0 0.0 0.00 0.61 0.28 98 1008.6
20260510065827 13 84 0.0 0.0 0.00 0.61 0.28 98 1008.5
20260510065714 13 84 0.0 0.0 0.00 0.61 0.28 98 1008.5
20260510065633 13 84 0.0 0.0 0.00 0.61 0.28 98 1008.5
20260510065537 13 84 0.0 0.0 0.00 0.61 0.28 98 1008.5
20260510065507 13 84 0.0 0.0 0.00 0.61 0.28 98 1008.4
20260510065442 13 84 0.0 1.6 0.00 0.61 0.28 98 1008.5
20260510065051 13 84 0.0 3.2 0.00 0.61 0.28 98 1008.4
20260510065014 13 84 0.0 3.2 0.00 0.61 0.28 98 1008.4
20260510064930 13 84 0.0 6.4 0.00 0.61 0.28 98 1008.4
20260510064613 13 84 1.6 6.4 0.00 0.61 0.28 98 1008.4
20260510064459 13 93 0.0 6.4 0.00 0.61 0.28 98 1008.4
20260510064336 13 82 1.6 6.4 0.00 0.61 0.28 98 1008.4
20260510064227 13 82 1.6 6.4 0.00 0.61 0.28 98 1008.3
20260510064042 13 108 1.6 4.8 0.00 0.61 0.28 98 1008.4
20260510063959 13 108 1.6 4.8 0.00 0.61 0.28 98 1008.5
20260510063936 13 108 1.6 6.4 0.00 0.61 0.28 98 1008.4
20260510063825 13 88 3.2 6.4 0.00 0.61 0.28 98 1008.4
20260510063641 13 90 3.2 6.4 0.00 0.61 0.28 98 1008.5
20260510063505 13 126 3.2 6.4 0.00 0.61 0.28 98 1008.5
20260510063330 13 80 3.2 6.4 0.00 0.61 0.28 98 1008.5
20260510063248 13 86 3.2 6.4 0.00 0.61 0.28 98 1008.5
20260510063154 13 75 1.6 4.8 0.00 0.61 0.28 98 1008.5
20260510063018 13 84 3.2 6.4 0.00 0.61 0.28 98 1008.5
20260510062622 13 92 3.2 6.4 0.00 0.61 0.28 98 1008.4
20260510061817 13 80 3.2 9.7 0.00 0.61 0.28 98 1008.4
20260510061343 13 92 3.2 9.7 0.00 0.61 0.28 98 1008.4
20260510060946 13 104 4.8 9.7 0.00 0.61 0.28 98 1008.4
20260510060425 13 113 1.6 4.8 0.00 0.61 0.28 98 1008.5
20260510060036 13 12 0.0 3.2 0.00 0.61 0.28 98 1008.5
20260510055643 13 12 0.0 3.2 0.00 0.61 0.28 98 1008.5
20260510055013 13 12 1.6 3.2 0.00 0.61 0.28 98 1008.4
20260510054944 13 12 3.2 3.2 0.00 0.61 0.28 98 1008.5
20260510053614 13 12 0.0 4.8 0.00 0.61 0.28 98 1008.6
20260510053530 13 12 0.0 4.8 0.00 0.61 0.28 98 1008.5
20260510053508 13 12 0.0 4.8 0.00 0.61 0.28 98 1008.5
20260510053414 13 12 1.6 4.8 0.00 0.61 0.28 98 1008.4
20260510053252 13 12 1.6 4.8 0.00 0.61 0.28 98 1008.5
20260510053148 13 12 1.6 4.8 0.00 0.61 0.28 98 1008.3
20260510053130 13 12 1.6 4.8 0.00 0.61 0.28 98 1008.4
20260510053006 13 12 3.2 4.8 0.00 0.61 0.28 97 1008.5
20260510052906 13 12 3.2 6.4 0.00 0.61 0.28 97 1008.4
20260510052842 13 12 1.6 6.4 0.00 0.61 0.28 97 1008.4
20260510052755 13 314 1.6 6.4 0.00 0.61 0.28 97 1008.4
20260510052614 13 277 0.0 6.4 0.00 0.61 0.28 97 1008.5
20260510052429 13 107 3.2 6.4 0.00 0.61 0.28 98 1008.4
20260510052247 13 61 4.8 6.4 0.00 0.61 0.28 98 1008.4
20260510052104 13 103 1.6 6.4 0.00 0.61 0.28 97 1008.4
20260510052030 13 115 1.6 6.4 0.00 0.61 0.28 97 1008.5
20260510051929 13 262 1.6 6.4 0.00 0.61 0.28 97 1008.3
20260510051748 13 101 1.6 6.4 0.00 0.61 0.28 97 1008.4
20260510051405 13 80 4.8 6.4 0.00 0.61 0.28 97 1008.3
20260510051203 13 84 3.2 6.4 0.00 0.61 0.28 97 1008.4
20260510051026 13 175 0.0 4.8 0.00 0.61 0.28 97 1008.5
20260510050951 13 250 0.0 4.8 0.00 0.61 0.28 97 1008.5
20260510050907 13 250 3.2 4.8 0.00 0.61 0.28 97 1008.6
20260510050723 13 198 1.6 4.8 0.00 0.61 0.28 97 1008.4
20260510050627 13 80 1.6 4.8 0.00 0.61 0.28 97 1008.4
20260510050600 13 71 1.6 4.8 0.00 0.61 0.28 97 1008.3
20260510050419 13 89 1.6 8.0 0.00 0.61 0.28 97 1008.3
20260510050324 13 89 1.6 8.0 0.00 0.61 0.28 97 1008.3
20260510045937 13 105 3.2 8.0 0.00 0.61 0.28 97 1008.3
20260510045801 13 109 4.8 8.0 0.00 0.61 0.28 97 1008.4
20260510045417 13 85 3.2 8.0 0.00 0.61 0.28 97 1008.3
20260510045223 13 107 3.2 9.7 0.00 0.61 0.28 98 1008.3
20260510045100 13 165 3.2 9.7 0.00 0.61 0.28 98 1008.5
20260510045029 13 166 3.2 9.7 0.00 0.61 0.28 98 1008.4
20260510044855 13 121 4.8 9.7 0.00 0.61 0.28 98 1008.3
20260510044125 13 74 3.2 9.7 0.00 0.61 0.28 97 1008.3
20260510043943 13 315 1.6 8.0 0.00 0.61 0.28 97 1008.3
20260510043826 13 237 3.2 8.0 0.00 0.61 0.28 97 1008.4
20260510043412 13 179 4.8 8.0 0.00 0.61 0.28 97 1008.4
20260510043231 13 44 4.8 8.0 0.00 0.61 0.28 97 1008.3
20260510043122 13 61 3.2 6.4 0.00 0.61 0.28 98 1008.3
20260510043044 13 88 3.2 6.4 0.00 0.61 0.28 98 1008.4
20260510042853 13 152 3.2 6.4 0.00 0.61 0.28 98 1008.4
20260510042102 13 90 3.2 6.4 0.00 0.61 0.28 98 1008.4
20260510041945 13 98 3.2 6.4 0.00 0.61 0.28 98 1008.4
20260510041840 13 91 3.2 6.4 0.00 0.61 0.28 97 1008.4
20260510041804 13 86 3.2 6.4 0.00 0.61 0.28 97 1008.3
20260510041232 13 162 3.2 6.4 0.00 0.61 0.28 97 1008.5
20260510040843 13 109 3.2 6.4 0.00 0.61 0.28 97 1008.4
20260510040732 13 111 3.2 6.4 0.00 0.61 0.28 97 1008.4
20260510040633 13 121 3.2 6.4 0.00 0.61 0.28 97 1008.5
20260510040556 13 113 3.2 6.4 0.00 0.61 0.28 97 1008.4
20260510040407 13 161 3.2 6.4 0.00 0.61 0.28 97 1008.4
20260510040214 13 136 3.2 6.4 0.00 0.61 0.28 98 1008.5
20260510040032 13 84 3.2 6.4 0.00 0.61 0.28 98 1008.5
20260510035859 13 116 3.2 6.4 0.00 0.61 0.28 97 1008.4
20260510035806 13 120 3.2 6.4 0.00 0.61 0.28 97 1008.4
20260510035711 13 112 3.2 4.8 0.00 0.61 0.28 97 1008.4
20260510035543 13 76 1.6 4.8 0.00 0.61 0.28 97 1008.4
20260510034902 13 113 0.0 4.8 0.00 0.61 0.28 97 1008.4
20260510034812 13 113 0.0 6.4 0.00 0.61 0.28 97 1008.4
20260510034749 13 113 0.0 6.4 0.00 0.61 0.28 97 1008.4
20260510034710 13 113 0.0 6.4 0.00 0.61 0.28 97 1008.6
20260510034608 13 113 3.2 6.4 0.00 0.61 0.28 97 1008.4
20260510033846 13 93 1.6 6.4 0.00 0.61 0.28 97 1008.5
20260510033713 13 129 0.0 6.4 0.00 0.61 0.28 97 1008.5
20260510033632 13 182 1.6 6.4 0.00 0.61 0.28 97 1008.6
20260510033545 13 182 3.2 6.4 0.00 0.61 0.28 97 1008.5
20260510033416 13 142 1.6 6.4 0.00 0.61 0.28 97 1008.5
20260510033231 13 122 3.2 6.4 0.00 0.61 0.28 97 1008.5
20260510032704 13 88 3.2 6.4 0.00 0.61 0.28 97 1008.6
20260510032618 13 100 3.2 4.8 0.00 0.61 0.28 97 1008.6
20260510032513 13 128 1.6 4.8 0.00 0.61 0.28 97 1008.7
20260510032012 13 63 3.2 4.8 0.00 0.61 0.28 97 1008.7
20260510031619 13 80 3.2 4.8 0.00 0.61 0.28 97 1008.7
20260510031455 13 99 1.6 4.8 0.00 0.61 0.28 97 1008.7
20260510031422 13 118 0.0 6.4 0.00 0.61 0.28 97 1008.9
20260510031340 13 118 0.0 6.4 0.00 0.61 0.28 97 1008.7
20260510031156 13 100 0.0 6.4 0.00 0.61 0.28 97 1008.8
20260510031052 13 103 3.2 6.4 0.00 0.61 0.28 97 1008.7
20260510031046 13 103 3.2 6.4 0.00 0.61 0.28 97 1008.7
20260510030913 13 82 4.8 6.4 0.00 0.61 0.28 97 1008.8
20260510030741 13 96 3.2 6.4 0.00 0.61 0.28 97 1008.7
20260510030646 13 104 3.2 6.4 0.00 0.61 0.28 97 1008.7
20260510030534 13 90 3.2 6.4 0.00 0.61 0.28 97 1008.7
20260510030400 13 77 3.2 6.4 0.00 0.61 0.28 97 1008.7
20260510030009 13 74 4.8 6.4 0.00 0.61 0.28 97 1008.7
20260510025813 13 81 3.2 6.4 0.00 0.61 0.28 97 1008.8
20260510025637 13 92 4.8 6.4 0.00 0.61 0.28 97 1008.8
20260510025549 13 98 3.2 6.4 0.00 0.61 0.28 97 1008.7
20260510025432 13 88 3.2 6.4 0.00 0.61 0.28 97 1008.9
20260510025306 13 86 4.8 6.4 0.00 0.61 0.28 97 1008.8
20260510025127 13 78 4.8 6.4 0.00 0.61 0.28 97 1008.9
20260510025119 13 84 4.8 6.4 0.00 0.61 0.28 97 1008.9
20260510024933 13 82 3.2 6.4 0.00 0.61 0.28 97 1008.9
20260510024809 13 98 3.2 4.8 0.00 0.61 0.28 97 1008.9
20260510024722 13 80 3.2 6.4 0.00 0.61 0.28 97 1009.0
20260510024606 13 92 3.2 6.4 0.00 0.61 0.28 97 1009.0
20260510024433 13 101 3.2 6.4 0.00 0.61 0.28 97 1008.9
20260510024300 13 81 3.2 6.4 0.00 0.61 0.28 97 1008.9
20260510024246 13 76 3.2 6.4 0.00 0.61 0.28 97 1008.9
20260510023727 13 64 3.2 6.4 0.00 0.61 0.28 97 1009.0
20260510023303 13 70 1.6 4.8 0.00 0.61 0.28 97 1009.0
20260510023130 13 70 3.2 4.8 0.00 0.61 0.28 97 1009.0
20260510022741 13 70 3.2 6.4 0.00 0.61 0.28 97 1008.9
20260510022542 13 59 1.6 6.4 0.00 0.61 0.28 97 1008.9
20260510022410 13 65 3.2 6.4 0.00 0.61 0.28 97 1009.0
20260510022338 13 63 3.2 6.4 0.00 0.61 0.28 97 1008.9
20260510021513 13 59 3.2 6.4 0.00 0.61 0.28 97 1008.8
20260510021459 13 59 3.2 6.4 0.00 0.61 0.28 97 1008.9
20260510021308 13 91 4.8 6.4 0.00 0.61 0.28 97 1008.9
20260510021136 13 67 3.2 6.4 0.00 0.61 0.28 97 1008.9
20260510020733 13 93 3.2 6.4 0.00 0.61 0.28 97 1009.0
20260510020615 13 119 3.2 6.4 0.00 0.61 0.28 97 1008.9
20260510020245 13 85 1.6 6.4 0.03 0.61 0.28 97 1008.9
20260510020050 13 78 3.2 6.4 0.03 0.61 0.28 97 1009.0
20260510015621 13 125 3.2 6.4 0.03 0.61 0.28 97 1009.0
20260510015518 13 114 3.2 6.4 0.03 0.61 0.28 97 1008.9
20260510015333 13 83 3.2 4.8 0.03 0.61 0.28 97 1009.0
20260510015157 13 90 1.6 3.2 0.03 0.61 0.28 97 1008.9
20260510015024 13 88 0.0 3.2 0.03 0.61 0.28 97 1008.9
20260510014919 13 88 0.0 3.2 0.03 0.61 0.28 97 1009.0
20260510014827 13 71 0.0 3.2 0.03 0.61 0.28 97 1008.9
20260510014740 13 71 1.6 3.2 0.03 0.61 0.28 97 1009.0
20260510014630 13 75 1.6 4.8 0.03 0.61 0.28 97 1008.9
20260510014307 13 75 1.6 4.8 0.03 0.61 0.28 97 1009.0
20260510014121 13 68 0.0 4.8 0.03 0.61 0.28 97 1009.0
20260510014022 13 68 3.2 4.8 0.03 0.61 0.28 97 1009.0
20260510013941 13 68 3.2 4.8 0.03 0.61 0.28 97 1009.0
20260510013852 13 68 3.2 4.8 0.03 0.61 0.28 97 1009.0
20260510013736 13 86 3.2 4.8 0.05 0.61 0.28 97 1009.0
20260510013558 13 154 1.6 4.8 0.05 0.61 0.28 97 1009.0
20260510013408 13 254 1.6 4.8 0.05 0.61 0.28 97 1009.1
20260510013232 13 254 1.6 4.8 0.05 0.61 0.28 97 1009.1
20260510013149 13 213 0.0 4.8 0.05 0.61 0.28 97 1009.1
20260510013056 13 117 0.0 4.8 0.05 0.61 0.28 97 1009.1
20260510012952 13 117 3.2 4.8 0.05 0.61 0.28 97 1009.1
20260510012818 13 117 3.2 4.8 0.05 0.61 0.28 97 1009.1
20260510012442 13 96 1.6 4.8 0.05 0.61 0.28 97 1009.1
20260510012328 13 79 0.0 4.8 0.05 0.61 0.28 97 1009.1
20260510012242 13 89 0.0 4.8 0.05 0.61 0.28 97 1009.1
20260510012206 13 89 0.0 4.8 0.05 0.61 0.28 97 1009.0
20260510012111 13 89 1.6 4.8 0.05 0.61 0.28 97 1009.0
20260510011953 13 73 3.2 6.4 0.05 0.61 0.28 97 1009.1
20260510011820 13 83 3.2 6.4 0.05 0.61 0.28 97 1009.1
20260510011653 13 80 0.0 6.4 0.05 0.61 0.28 97 1009.1
20260510011605 13 101 1.6 6.4 0.05 0.61 0.28 97 1009.1
20260510011508 13 101 1.6 6.4 0.05 0.61 0.28 97 1009.2
20260510011350 13 82 3.2 6.4 0.05 0.61 0.28 97 1009.1
20260510011208 13 88 1.6 4.8 0.05 0.61 0.25 97 1009.2
20260510010811 13 115 1.6 4.8 0.05 0.61 0.25 97 1009.2
20260510010648 13 103 3.2 4.8 0.05 0.61 0.25 97 1009.2
20260510010552 13 96 3.2 4.8 0.05 0.61 0.25 96 1009.2
20260510010448 13 88 3.2 4.8 0.05 0.61 0.25 96 1009.2
20260510010313 13 103 3.2 4.8 0.05 0.61 0.25 96 1009.2
20260510010153 13 76 4.8 4.8 0.05 0.61 0.25 96 1009.2
20260510005829 13 76 3.2 4.8 0.05 0.61 0.25 96 1009.2
20260510005711 13 78 3.2 4.8 0.05 0.61 0.25 96 1009.2
20260510005629 13 67 3.2 3.2 0.05 0.61 0.25 96 1009.2
20260510005541 13 67 3.2 3.2 0.05 0.61 0.25 96 1009.3
20260510005447 13 67 3.2 3.2 0.05 0.61 0.25 96 1009.2
20260510005338 13 73 1.6 3.2 0.08 0.61 0.25 96 1009.2
20260510005207 13 68 0.0 3.2 0.08 0.61 0.25 96 1009.3
20260510005123 13 68 0.0 3.2 0.08 0.61 0.25 96 1009.2
20260510005045 13 68 0.0 3.2 0.08 0.61 0.25 96 1009.3
20260510004657 13 68 0.0 3.2 0.05 0.58 0.25 96 1009.3
20260510004544 13 68 1.6 3.2 0.08 0.58 0.23 96 1009.3
20260510004413 13 71 0.0 3.2 0.08 0.58 0.23 96 1009.2
20260510004312 13 71 0.0 4.8 0.08 0.58 0.23 96 1009.4
20260510004227 13 72 0.0 4.8 0.08 0.58 0.23 96 1009.4
20260510004137 13 72 1.6 4.8 0.08 0.58 0.23 96 1009.4
20260510004008 13 72 3.2 4.8 0.08 0.58 0.23 96 1009.3
20260510003839 13 70 3.2 4.8 0.08 0.58 0.23 96 1009.3
20260510003709 13 76 3.2 4.8 0.08 0.58 0.23 96 1009.3
20260510003546 13 82 1.6 4.8 0.10 0.58 0.23 96 1009.4
20260510003508 13 78 1.6 3.2 0.10 0.58 0.23 96 1009.3
20260510003427 13 78 3.2 3.2 0.10 0.58 0.23 96 1009.4
20260510003303 13 94 1.6 3.2 0.08 0.56 0.23 96 1009.3
20260510002608 13 115 1.6 3.2 0.08 0.56 0.23 96 1009.2
20260510002435 13 126 1.6 3.2 0.10 0.56 0.23 96 1009.3
20260510002337 13 125 0.0 3.2 0.10 0.56 0.23 96 1009.2
20260510002256 13 105 0.0 1.6 0.10 0.56 0.23 96 1009.1
20260510002142 13 74 0.0 3.2 0.10 0.56 0.23 96 1009.2
20260510002019 13 74 0.0 4.8 0.13 0.56 0.23 96 1009.2
20260510001942 13 74 0.0 4.8 0.13 0.56 0.23 96 1009.3
20260510001904 13 74 0.0 4.8 0.13 0.56 0.23 96 1009.3
20260510001818 13 74 1.6 4.8 0.10 0.53 0.20 96 1009.3
20260510001728 13 74 3.2 4.8 0.10 0.53 0.20 96 1009.2
20260510001610 13 74 3.2 4.8 0.10 0.53 0.20 96 1009.2
20260510001508 13 63 1.6 4.8 0.10 0.53 0.20 96 1009.3
20260510001442 13 69 1.6 4.8 0.10 0.53 0.20 96 1009.3
20260510001342 13 84 1.6 4.8 0.10 0.53 0.20 96 1009.4
20260510001226 13 82 0.0 3.2 0.13 0.53 0.20 96 1009.3
20260510001148 13 82 1.6 4.8 0.13 0.53 0.20 96 1009.3
20260510001050 13 82 3.2 4.8 0.13 0.53 0.20 96 1009.3
20260510000604 13 136 0.0 4.8 0.10 0.51 0.18 96 1009.3
20260510000207 13 139 1.6 4.8 0.13 0.51 0.18 96 1009.3
20260509235809 13 145 1.6 4.8 0.13 0.51 0.18 96 1009.3
20260509235328 13 132 0.0 3.2 0.13 0.51 0.18 96 1009.3
20260509234646 13 109 0.0 1.6 0.13 0.51 0.15 96 1009.4
20260509234313 13 109 0.0 3.2 0.13 0.51 0.15 96 1009.4
20260509234237 13 109 0.0 3.2 0.13 0.51 0.15 96 1009.4
20260509234141 13 109 0.0 4.8 0.15 0.51 0.15 96 1009.4
20260509234052 13 109 0.0 4.8 0.15 0.51 0.15 96 1009.3
20260509234018 13 109 0.0 4.8 0.15 0.51 0.15 96 1009.4
20260509233915 13 109 0.0 4.8 0.13 0.48 0.15 96 1009.3
20260509233746 13 109 0.0 6.4 0.15 0.48 0.15 96 1009.3
20260509233725 13 109 1.6 6.4 0.15 0.48 0.15 96 1009.4
20260509233623 13 100 1.6 6.4 0.15 0.48 0.15 96 1009.3
20260509233456 13 86 0.0 6.4 0.15 0.48 0.15 96 1009.4
20260509233340 13 122 0.0 6.4 0.15 0.48 0.15 96 1009.3
20260509233015 13 149 3.2 6.4 0.15 0.48 0.15 96 1009.4
20260509232839 13 153 0.0 4.8 0.15 0.46 0.13 96 1009.3
20260509232805 13 166 0.0 4.8 0.15 0.46 0.13 96 1009.3
20260509232710 13 178 0.0 4.8 0.15 0.46 0.13 96 1009.3
20260509232609 13 178 1.6 4.8 0.15 0.46 0.13 96 1009.4
20260509232500 13 90 4.8 4.8 0.15 0.43 0.10 95 1009.4
20260509232443 13 90 4.8 8.0 0.15 0.43 0.10 95 1009.4
20260509232345 13 90 3.2 8.0 0.15 0.43 0.10 95 1009.4
20260509232233 13 45 1.6 8.0 0.15 0.43 0.10 95 1009.3
20260509232135 13 140 0.0 8.0 0.15 0.43 0.10 95 1009.4
20260509231731 13 172 1.6 8.0 0.18 0.43 0.10 95 1009.5
20260509231548 13 157 4.8 8.0 0.18 0.43 0.10 95 1009.5
20260509231150 14 158 6.4 8.0 0.18 0.43 0.10 95 1009.5
20260509230752 14 201 1.6 4.8 0.18 0.43 0.08 95 1009.2
20260509230711 14 201 1.6 4.8 0.18 0.43 0.08 95 1009.3
20260509230553 14 254 1.6 1.6 0.18 0.43 0.08 95 1009.1
20260509230430 14 261 0.0 1.6 0.18 0.43 0.08 94 1009.1
20260509225723 14 261 0.0 4.8 0.18 0.41 0.05 94 1009.1
20260509225357 14 261 0.0 4.8 0.18 0.41 0.05 94 1009.1
20260509225312 14 261 0.0 4.8 0.20 0.41 0.05 94 1009.2
20260509225211 14 261 0.0 4.8 0.18 0.38 0.05 94 1009.2
20260509225155 14 261 1.6 4.8 0.18 0.38 0.05 94 1009.2
20260509225039 14 261 3.2 4.8 0.20 0.38 0.05 94 1009.2
20260509224922 14 257 0.0 6.4 0.20 0.38 0.05 94 1009.2
20260509224217 14 152 3.2 11.3 0.20 0.36 0.03 93 1009.2
20260509223900 14 152 0.0 11.3 0.20 0.36 0.03 93 1009.2
20260509223755 14 257 6.4 11.3 0.20 0.33 0.00 93 1009.3
20260509223659 14 257 3.2 11.3 0.20 0.33 0.00 93 1009.2
20260509223626 14 257 3.2 11.3 0.20 0.33 0.00 93 1009.2
20260509223511 14 263 3.2 6.4 0.20 0.33 0.00 93 1009.3
20260509223348 14 259 3.2 4.8 0.20 0.33 0.00 93 1009.2
20260509223215 14 281 3.2 4.8 0.23 0.33 0.33 93 1009.2
20260509222800 14 250 1.6 4.8 0.20 0.33 0.33 92 1009.2
20260509222633 14 248 1.6 4.8 0.23 0.33 0.33 92 1009.2
20260509222609 14 248 1.6 4.8 0.23 0.33 0.33 92 1009.3
20260509222448 14 139 0.0 6.4 0.23 0.33 0.33 92 1009.3
20260509222344 14 122 0.0 6.4 0.20 0.30 0.30 92 1009.3
20260509222238 14 63 0.0 6.4 0.23 0.30 0.30 92 1009.3
20260509222210 14 63 4.8 6.4 0.20 0.28 0.30 92 1009.3
20260509222115 14 63 4.8 6.4 0.20 0.28 0.28 92 1009.4
20260509222020 14 63 4.8 6.4 0.20 0.28 0.28 92 1009.5
20260509221655 14 65 3.2 6.4 0.20 0.25 0.25 92 1009.5
20260509221608 14 65 3.2 6.4 0.20 0.25 0.25 92 1009.5
20260509221538 14 65 3.2 8.0 0.20 0.25 0.25 92 1009.5
20260509221511 14 65 3.2 8.0 0.20 0.25 0.25 92 1009.5
20260509221425 14 65 3.2 8.0 0.23 0.25 0.25 92 1009.6
20260509221254 14 59 3.2 8.0 0.20 0.23 0.25 92 1009.6
20260509221247 14 61 3.2 8.0 0.20 0.23 0.25 92 1009.5
20260509221108 14 63 1.6 9.7 0.20 0.23 0.23 92 1009.6
20260509221000 14 44 3.2 12.9 0.23 0.23 0.23 92 1009.6
20260509220904 14 42 1.6 12.9 0.23 0.23 0.23 92 1009.5
20260509220831 14 42 3.2 12.9 0.20 0.23 0.23 91 1009.7
20260509220321 15 43 6.4 12.9 0.20 0.23 0.23 91 1009.9
20260509220153 15 67 8.0 12.9 0.18 0.20 0.20 91 1010.2
20260509220010 15 71 6.4 9.7 0.18 0.20 0.20 91 1010.3
20260509215904 15 46 4.8 9.7 0.18 0.20 0.20 91 1010.4
20260509215822 15 61 4.8 9.7 0.18 0.20 0.20 91 1010.5
20260509215640 15 50 6.4 9.7 0.18 0.18 0.18 90 1010.7
20260509214853 15 95 1.6 6.4 0.15 0.15 0.15 90 1010.9
20260509214723 15 196 1.6 6.4 0.15 0.15 0.15 89 1010.9
20260509214610 15 200 3.2 6.4 0.15 0.15 0.15 89 1010.9
20260509214542 15 200 3.2 6.4 0.15 0.15 0.15 89 1010.9
20260509214415 15 238 3.2 6.4 0.15 0.15 0.15 89 1010.9
20260509214010 15 234 3.2 6.4 0.15 0.15 0.15 88 1010.8
20260509213503 15 205 3.2 8.0 0.13 0.13 0.13 87 1010.9
20260509213101 15 223 4.8 9.7 0.13 0.13 0.13 87 1011.1
20260509212936 15 207 4.8 9.7 0.13 0.13 0.13 86 1010.8
20260509212758 15 207 6.4 9.7 0.10 0.10 0.10 86 1010.7
20260509212726 15 220 6.4 9.7 0.10 0.10 0.10 86 1010.7
20260509212610 15 215 6.4 11.3 0.10 0.10 0.10 85 1010.7
20260509212423 15 212 8.0 11.3 0.10 0.10 0.10 85 1010.6
20260509212308 15 217 6.4 12.9 0.08 0.08 0.10 85 1010.5
20260509212228 15 209 6.4 12.9 0.08 0.08 0.08 84 1010.5
20260509212059 16 204 8.0 12.9 0.08 0.08 0.08 83 1010.3
20260509211905 16 226 6.4 16.1 0.08 0.08 0.08 83 1010.3
20260509211835 16 213 4.8 16.1 0.05 0.05 0.08 82 1010.2
20260509211712 16 218 4.8 16.1 0.05 0.05 0.05 84 1010.2
20260509211546 16 215 6.4 16.1 0.05 0.05 0.05 82 1010.2
20260509211423 16 307 6.4 16.1 0.05 0.05 0.05 82 1010.4
20260509210959 16 136 6.4 16.1 0.05 0.05 0.05 81 1010.5
20260509210819 17 86 8.0 14.5 0.05 0.05 0.05 81 1010.5
20260509210808 17 65 8.0 14.5 0.05 0.05 0.05 81 1010.6
20260509210633 17 123 4.8 14.5 0.03 0.03 0.05 81 1010.5
20260509210455 17 130 6.4 14.5 0.03 0.03 0.03 80 1010.5
20260509210345 17 121 4.8 14.5 0.03 0.03 0.03 80 1010.7
20260509210253 17 141 3.2 12.9 0.03 0.03 0.03 80 1010.7
20260509205509 18 186 4.8 17.7 0.03 0.03 0.03 82 1010.8
20260509205411 18 192 6.4 17.7 0.03 0.03 0.03 82 1010.5
20260509205331 18 157 8.0 17.7 0.03 0.03 0.03 82 1010.6
20260509205205 18 254 4.8 14.5 0.00 0.00 0.00 82 1010.5
20260509204841 18 212 4.8 14.5 0.00 0.00 0.00 81 1010.4
20260509204656 19 190 6.4 14.5 0.00 0.00 0.00 80 1010.5
20260509204514 19 130 9.7 14.5 0.00 0.00 0.00 79 1010.4
20260509204421 19 180 8.0 12.9 0.00 0.00 0.00 78 1010.4
20260509204332 19 154 6.4 12.9 0.00 0.00 0.00 78 1010.4
20260509204200 19 143 6.4 11.3 0.00 0.00 0.00 77 1010.2
20260509203900 19 159 6.4 11.3 0.00 0.00 0.00 77 1010.1
20260509203720 19 135 4.8 9.7 0.00 0.00 0.00 76 1010.0
20260509203535 20 132 4.8 11.3 0.00 0.00 0.00 76 1009.9
20260509203121 20 142 6.4 11.3 0.00 0.00 0.00 75 1009.9
20260509202233 20 149 4.8 11.3 0.00 0.00 0.00 75 1009.6
20260509202121 20 115 4.8 12.9 0.00 0.00 0.00 74 1009.6
20260509201945 20 111 4.8 12.9 0.00 0.00 0.00 74 1009.5
20260509201814 20 95 6.4 12.9 0.00 0.00 0.00 74 1009.5
20260509201754 20 124 6.4 12.9 0.00 0.00 0.00 74 1009.5
20260509201024 20 71 4.8 14.5 0.00 0.00 0.00 74 1009.3
20260509200842 20 88 4.8 14.5 0.00 0.00 0.00 74 1009.3
20260509200713 20 77 8.0 14.5 0.00 0.00 0.00 73 1009.2
20260509200649 20 45 8.0 14.5 0.00 0.00 0.00 73 1009.2
20260509200508 20 82 8.0 14.5 0.00 0.00 0.00 73 1009.2
20260509200213 20 68 8.0 14.5 0.00 0.00 0.00 73 1009.2
20260509195718 20 57 8.0 14.5 0.00 0.00 0.00 73 1009.1
20260509195550 20 67 8.0 14.5 0.00 0.00 0.00 73 1009.0
20260509195524 20 63 8.0 14.5 0.00 0.00 0.00 73 1009.0
20260509195340 20 69 6.4 14.5 0.00 0.00 0.00 73 1009.0
20260509195149 20 90 6.4 16.1 0.00 0.00 0.00 72 1009.0
20260509195119 20 69 6.4 16.1 0.00 0.00 0.00 72 1009.0
20260509194956 20 84 8.0 16.1 0.00 0.00 0.00 72 1009.0
20260509194810 20 134 6.4 16.1 0.00 0.00 0.00 72 1008.9
20260509194651 20 70 6.4 16.1 0.00 0.00 0.00 72 1008.9
20260509194623 20 109 6.4 16.1 0.00 0.00 0.00 72 1008.9
20260509194440 20 111 9.7 16.1 0.00 0.00 0.00 71 1008.9
20260509194008 20 71 4.8 9.7 0.00 0.00 0.00 72 1008.8
20260509193831 20 69 3.2 9.7 0.00 0.00 0.00 72 1008.8
20260509193709 20 49 4.8 9.7 0.00 0.00 0.00 71 1008.8
20260509193637 20 96 4.8 9.7 0.00 0.00 0.00 72 1008.9
20260509193136 20 68 3.2 9.7 0.00 0.00 0.00 71 1008.7
20260509193110 20 103 3.2 9.7 0.00 0.00 0.00 71 1008.7
20260509192950 20 78 3.2 9.7 0.00 0.00 0.00 71 1008.6
20260509192811 20 96 6.4 9.7 0.00 0.00 0.00 71 1008.7
20260509192646 21 81 4.8 9.7 0.00 0.00 0.00 71 1008.7
20260509192617 21 101 4.8 9.7 0.00 0.00 0.00 71 1008.7
20260509192436 21 64 3.2 9.7 0.00 0.00 0.00 71 1008.6
20260509192259 21 87 3.2 9.7 0.00 0.00 0.00 71 1008.6
20260509192229 21 82 4.8 14.5 0.00 0.00 0.00 71 1008.6
20260509191827 21 70 4.8 14.5 0.00 0.00 0.00 71 1008.6
20260509191643 21 44 6.4 14.5 0.00 0.00 0.00 71 1008.5
20260509191614 21 86 6.4 14.5 0.00 0.00 0.00 71 1008.5
20260509191044 21 90 6.4 14.5 0.00 0.00 0.00 71 1008.3
20260509191012 21 82 6.4 12.9 0.00 0.00 0.00 71 1008.3
20260509190906 21 77 6.4 12.9 0.00 0.00 0.00 71 1008.3
20260509190725 21 89 6.4 12.9 0.00 0.00 0.00 71 1008.2
20260509190605 21 77 6.4 14.5 0.00 0.00 0.00 71 1008.2
20260509190533 21 51 6.4 14.5 0.00 0.00 0.00 71 1008.2
20260509190352 21 76 8.0 16.1 0.00 0.00 0.00 71 1008.2
20260509190216 21 66 6.4 16.1 0.00 0.00 0.00 71 1008.2
20260509190145 21 43 6.4 16.1 0.00 0.00 0.00 71 1008.0
20260509190024 21 92 8.0 16.1 0.00 0.00 0.00 71 1008.1
20260509185846 21 76 9.7 16.1 0.00 0.00 0.00 71 1008.1
20260509185716 21 57 8.0 16.1 0.00 0.00 0.00 71 1008.0
20260509185643 21 46 8.0 16.1 0.00 0.00 0.00 71 1008.1
20260509185113 21 69 4.8 9.7 0.00 0.00 0.00 70 1008.0
20260509185037 21 65 4.8 9.7 0.00 0.00 0.00 70 1008.0
20260509184917 21 92 4.8 9.7 0.00 0.00 0.00 70 1008.0
20260509184736 21 66 6.4 9.7 0.00 0.00 0.00 70 1008.0
20260509184624 21 67 4.8 9.7 0.00 0.00 0.00 69 1008.0
20260509184547 21 54 4.8 8.0 0.00 0.00 0.00 69 1008.0
20260509184407 21 68 3.2 8.0 0.00 0.00 0.00 69 1008.0
20260509184227 21 47 1.6 11.3 0.00 0.00 0.00 70 1008.0
20260509184208 21 47 3.2 11.3 0.00 0.00 0.00 70 1008.0
20260509184103 21 57 3.2 11.3 0.00 0.00 0.00 69 1008.0
20260509183653 21 72 4.8 11.3 0.00 0.00 0.00 69 1007.9
20260509183309 22 73 4.8 12.9 0.00 0.00 0.00 68 1007.8
20260509182907 22 63 6.4 12.9 0.00 0.00 0.00 68 1007.7
20260509182445 22 82 8.0 16.1 0.00 0.00 0.00 68 1007.8
20260509182249 22 54 8.0 16.1 0.00 0.00 0.00 67 1007.7
20260509181737 22 49 9.7 16.1 0.00 0.00 0.00 67 1007.7
20260509181641 22 75 11.3 16.1 0.00 0.00 0.00 67 1007.7
20260509181547 22 57 8.0 16.1 0.00 0.00 0.00 67 1007.8
20260509181402 22 76 6.4 14.5 0.00 0.00 0.00 68 1007.7
20260509181213 22 34 0.0 6.4 0.00 0.00 0.00 68 1007.6
20260509181059 22 61 0.0 3.2 0.00 0.00 0.00 68 1007.7
20260509180723 22 49 0.0 9.7 0.00 0.00 0.00 67 1007.6
20260509180625 22 49 0.0 9.7 0.00 0.00 0.00 66 1007.5
20260509180214 22 51 4.8 9.7 0.00 0.00 0.00 67 1007.5
20260509180035 22 95 4.8 9.7 0.00 0.00 0.00 68 1007.5
20260509175941 22 52 4.8 8.0 0.00 0.00 0.00 67 1007.5
20260509175459 22 54 3.2 6.4 0.00 0.00 0.00 68 1007.4
20260509175317 22 76 4.8 8.0 0.00 0.00 0.00 67 1007.5
20260509175146 22 46 3.2 12.9 0.00 0.00 0.00 67 1007.5
20260509175009 22 47 3.2 12.9 0.00 0.00 0.00 67 1007.5
20260509174909 22 46 3.2 12.9 0.00 0.00 0.00 66 1007.4
20260509174812 22 67 4.8 12.9 0.00 0.00 0.00 66 1007.4
20260509174631 22 47 6.4 12.9 0.00 0.00 0.00 65 1007.5
20260509174456 22 74 6.4 12.9 0.00 0.00 0.00 65 1007.4
20260509174437 22 84 6.4 12.9 0.00 0.00 0.00 65 1007.4
20260509174255 22 109 6.4 12.9 0.00 0.00 0.00 66 1007.5
20260509173819 22 76 4.8 12.9 0.00 0.00 0.00 66 1007.5
20260509173707 22 88 6.4 12.9 0.00 0.00 0.00 66 1007.5
20260509173532 22 76 6.4 12.9 0.00 0.00 0.00 66 1007.5
20260509173411 22 87 9.7 12.9 0.00 0.00 0.00 66 1007.5
20260509172958 22 57 6.4 12.9 0.00 0.00 0.00 66 1007.6
20260509172822 22 55 6.4 12.9 0.00 0.00 0.00 66 1007.6
20260509172746 22 63 6.4 12.9 0.00 0.00 0.00 66 1007.7
20260509172635 22 103 6.4 12.9 0.00 0.00 0.00 66 1007.6
20260509172452 22 53 6.4 12.9 0.00 0.00 0.00 66 1007.5
20260509172156 22 54 6.4 12.9 0.00 0.00 0.00 65 1007.5
20260509172018 22 79 4.8 12.9 0.00 0.00 0.00 66 1007.6
20260509171840 22 52 6.4 12.9 0.00 0.00 0.00 66 1007.6
20260509171513 22 76 6.4 12.9 0.00 0.00 0.00 67 1007.7
20260509171342 22 85 8.0 12.9 0.00 0.00 0.00 66 1007.7
20260509171220 22 78 4.8 11.3 0.00 0.00 0.00 67 1007.8
20260509171147 22 100 4.8 11.3 0.00 0.00 0.00 67 1007.8
20260509171005 22 59 3.2 14.5 0.00 0.00 0.00 67 1007.8
20260509170557 22 82 6.4 14.5 0.00 0.00 0.00 66 1007.8
20260509170152 22 65 11.3 16.1 0.00 0.00 0.00 66 1007.7
20260509165416 23 65 6.4 16.1 0.00 0.00 0.00 66 1007.7
20260509164652 23 78 4.8 14.5 0.00 0.00 0.00 66 1007.7
20260509164508 23 59 9.7 19.3 0.00 0.00 0.00 65 1007.7
20260509164454 23 62 9.7 19.3 0.00 0.00 0.00 65 1007.7
20260509164326 23 108 8.0 19.3 0.00 0.00 0.00 66 1007.7
20260509164150 23 42 11.3 19.3 0.00 0.00 0.00 66 1007.7
20260509164047 23 54 12.9 19.3 0.00 0.00 0.00 68 1007.7
20260509164011 23 78 9.7 19.3 0.00 0.00 0.00 68 1007.7
20260509163858 23 87 6.4 19.3 0.00 0.00 0.00 68 1007.7
20260509163716 23 50 6.4 12.9 0.00 0.00 0.00 66 1007.7
20260509163147 23 82 6.4 17.7 0.00 0.00 0.00 66 1007.7
20260509163051 23 74 6.4 17.7 0.00 0.00 0.00 66 1007.6
20260509163010 23 118 8.0 17.7 0.00 0.00 0.00 66 1007.6
20260509162442 23 69 9.7 17.7 0.00 0.00 0.00 66 1007.6
20260509162306 23 79 6.4 16.1 0.00 0.00 0.00 66 1007.5
20260509162130 23 54 4.8 14.5 0.00 0.00 0.00 66 1007.6
20260509161743 23 84 8.0 17.7 0.00 0.00 0.00 66 1007.5
20260509161614 23 58 8.0 17.7 0.00 0.00 0.00 65 1007.5
20260509161429 23 77 8.0 17.7 0.00 0.00 0.00 65 1007.5
20260509161255 23 52 9.7 17.7 0.00 0.00 0.00 64 1007.5
20260509161123 23 46 9.7 17.7 0.00 0.00 0.00 65 1007.6
20260509160744 23 86 4.8 14.5 0.00 0.00 0.00 64 1007.6
20260509160619 23 108 9.7 16.1 0.00 0.00 0.00 64 1007.6
20260509160442 23 123 9.7 16.1 0.00 0.00 0.00 64 1007.6
20260509160435 23 123 9.7 16.1 0.00 0.00 0.00 64 1007.6
20260509160253 22 72 9.7 16.1 0.00 0.00 0.00 63 1007.6
20260509160123 22 80 9.7 16.1 0.00 0.00 0.00 64 1007.7
20260509160037 22 55 11.3 16.1 0.00 0.00 0.00 64 1007.6
20260509155942 22 109 9.7 16.1 0.00 0.00 0.00 65 1007.7
20260509155803 22 83 6.4 14.5 0.00 0.00 0.00 65 1007.7
20260509155634 22 136 8.0 14.5 0.00 0.00 0.00 64 1007.7
20260509155623 22 96 8.0 14.5 0.00 0.00 0.00 64 1007.7
20260509155052 22 114 9.7 17.7 0.00 0.00 0.00 65 1007.6
20260509155013 22 67 6.4 17.7 0.00 0.00 0.00 65 1007.7
20260509154908 22 59 6.4 17.7 0.00 0.00 0.00 66 1007.7
20260509154740 22 49 8.0 17.7 0.00 0.00 0.00 65 1007.7
20260509154343 22 96 11.3 17.7 0.00 0.00 0.00 66 1007.7
20260509154212 22 117 8.0 17.7 0.00 0.00 0.00 66 1007.7
20260509154021 22 86 8.0 17.7 0.00 0.00 0.00 65 1007.8
20260509153938 22 115 6.4 16.1 0.00 0.00 0.00 66 1007.8
20260509153834 22 79 8.0 16.1 0.00 0.00 0.00 66 1007.8
20260509153706 22 64 11.3 16.1 0.00 0.00 0.00 65 1007.8
20260509153550 22 86 9.7 14.5 0.00 0.00 0.00 65 1007.8
20260509153522 22 134 9.7 14.5 0.00 0.00 0.00 65 1007.8
20260509153345 22 112 8.0 14.5 0.00 0.00 0.00 65 1007.7
20260509153204 22 57 8.0 14.5 0.00 0.00 0.00 65 1007.9
20260509152811 22 82 8.0 14.5 0.00 0.00 0.00 64 1007.9
20260509152630 22 68 8.0 14.5 0.00 0.00 0.00 64 1008.0
20260509152512 22 113 4.8 14.5 0.00 0.00 0.00 67 1007.9
20260509152440 22 113 4.8 14.5 0.00 0.00 0.00 67 1008.0
20260509152314 22 128 3.2 14.5 0.00 0.00 0.00 67 1008.0
20260509152130 22 75 8.0 17.7 0.00 0.00 0.00 66 1008.0
20260509152106 22 84 9.7 17.7 0.00 0.00 0.00 66 1008.1
20260509151937 22 82 8.0 17.7 0.00 0.00 0.00 66 1008.1
20260509151440 22 88 6.4 17.7 0.00 0.00 0.00 65 1008.1
20260509151403 22 155 6.4 17.7 0.00 0.00 0.00 65 1008.2
20260509151226 22 167 11.3 17.7 0.00 0.00 0.00 65 1008.2
20260509151045 22 75 8.0 14.5 0.00 0.00 0.00 66 1008.2
20260509151020 22 106 9.7 14.5 0.00 0.00 0.00 66 1008.3
20260509150850 22 80 6.4 17.7 0.00 0.00 0.00 66 1008.3
20260509150708 22 101 6.4 17.7 0.00 0.00 0.00 66 1008.3
20260509150604 22 115 8.0 17.7 0.00 0.00 0.00 66 1008.3
20260509150518 22 99 8.0 19.3 0.00 0.00 0.00 67 1008.3
20260509150342 22 154 8.0 19.3 0.00 0.00 0.00 66 1008.4
20260509150201 22 126 12.9 19.3 0.00 0.00 0.00 65 1008.3
20260509150144 22 121 12.9 19.3 0.00 0.00 0.00 65 1008.3
20260509150011 22 56 11.3 19.3 0.00 0.00 0.00 64 1008.3
20260509145830 22 136 12.9 19.3 0.00 0.00 0.00 64 1008.4
20260509145716 22 74 14.5 19.3 0.00 0.00 0.00 64 1008.5
20260509145633 22 61 14.5 19.3 0.00 0.00 0.00 64 1008.4
20260509145449 22 86 9.7 17.7 0.00 0.00 0.00 65 1008.5
20260509145208 22 76 11.3 17.7 0.00 0.00 0.00 64 1008.6
20260509145027 22 101 11.3 20.9 0.00 0.00 0.00 65 1008.6
20260509144613 22 93 11.3 20.9 0.00 0.00 0.00 66 1008.5
20260509144533 22 104 9.7 20.9 0.00 0.00 0.00 65 1008.5
20260509144039 22 114 14.5 20.9 0.00 0.00 0.00 65 1008.5
20260509143920 22 82 11.3 17.7 0.00 0.00 0.00 66 1008.5
20260509143754 22 93 9.7 17.7 0.00 0.00 0.00 67 1008.6
20260509143400 22 78 11.3 17.7 0.00 0.00 0.00 66 1008.6
20260509142705 22 101 9.7 17.7 0.00 0.00 0.00 66 1008.7
20260509142537 22 92 9.7 17.7 0.00 0.00 0.00 66 1008.7
20260509142347 22 153 6.4 14.5 0.00 0.00 0.00 67 1008.7
20260509142006 22 91 8.0 14.5 0.00 0.00 0.00 68 1008.6
20260509141835 22 65 8.0 16.1 0.00 0.00 0.00 69 1008.6
20260509141652 22 51 8.0 17.7 0.00 0.00 0.00 68 1008.6
20260509141642 22 59 8.0 17.7 0.00 0.00 0.00 68 1008.6
20260509141452 22 58 11.3 17.7 0.00 0.00 0.00 68 1008.6
20260509141254 22 157 9.7 17.7 0.00 0.00 0.00 67 1008.7
20260509141207 22 121 9.7 17.7 0.00 0.00 0.00 67 1008.7
20260509141104 22 115 12.9 17.7 0.00 0.00 0.00 67 1008.6
20260509140941 22 111 6.4 17.7 0.00 0.00 0.00 69 1008.7
20260509140751 22 124 9.7 14.5 0.00 0.00 0.00 69 1008.7
20260509140732 22 96 9.7 14.5 0.00 0.00 0.00 69 1008.8
20260509140622 22 96 6.4 14.5 0.00 0.00 0.00 69 1008.7
20260509140223 22 44 9.7 16.1 0.00 0.00 0.00 68 1008.7
20260509140111 22 69 9.7 16.1 0.00 0.00 0.00 68 1008.7
20260509135551 22 82 8.0 16.1 0.00 0.00 0.00 68 1008.6
20260509135537 22 101 8.0 16.1 0.00 0.00 0.00 68 1008.6
20260509135408 22 86 11.3 16.1 0.00 0.00 0.00 67 1008.6
20260509135225 22 107 9.7 16.1 0.00 0.00 0.00 68 1008.7
20260509135151 22 74 9.7 16.1 0.00 0.00 0.00 67 1008.7
20260509135057 22 72 11.3 16.1 0.00 0.00 0.00 67 1008.6
20260509134930 22 76 9.7 22.5 0.00 0.00 0.00 68 1008.7
20260509134759 22 97 8.0 22.5 0.00 0.00 0.00 69 1008.7
20260509134731 22 101 8.0 22.5 0.00 0.00 0.00 68 1008.8
20260509134608 22 76 8.0 22.5 0.00 0.00 0.00 67 1008.7
20260509134440 22 71 12.9 22.5 0.00 0.00 0.00 65 1008.7
20260509134411 22 56 16.1 22.5 0.00 0.00 0.00 65 1008.9
20260509134252 22 59 14.5 22.5 0.00 0.00 0.00 67 1008.9
20260509134120 22 54 9.7 17.7 0.00 0.00 0.00 68 1008.9
20260509133728 22 61 6.4 16.1 0.00 0.00 0.00 69 1008.9
20260509133606 22 104 8.0 16.1 0.00 0.00 0.00 68 1008.9
20260509133443 22 84 11.3 16.1 0.00 0.00 0.00 67 1008.9
20260509133418 22 101 11.3 16.1 0.00 0.00 0.00 67 1008.9
20260509133259 22 59 9.7 14.5 0.00 0.00 0.00 68 1008.9
20260509133127 22 96 6.4 11.3 0.00 0.00 0.00 69 1008.9
20260509133041 22 121 4.8 11.3 0.00 0.00 0.00 70 1008.9
20260509133021 22 121 4.8 11.3 0.00 0.00 0.00 70 1008.9
20260509132902 22 115 8.0 17.7 0.00 0.00 0.00 70 1008.9
20260509132514 22 93 6.4 17.7 0.00 0.00 0.00 71 1009.0
20260509132423 22 90 6.4 19.3 0.00 0.00 0.00 71 1008.9
20260509132317 21 86 11.3 19.3 0.00 0.00 0.00 71 1009.0
20260509132228 21 86 6.4 19.3 0.00 0.00 0.00 71 1009.0
20260509132204 21 86 6.4 19.3 0.00 0.00 0.00 71 1008.9
20260509132027 21 48 6.4 19.3 0.00 0.00 0.00 71 1009.0
20260509131846 21 49 9.7 19.3 0.00 0.00 0.00 70 1009.0
20260509131826 21 37 9.7 19.3 0.00 0.00 0.00 70 1009.0
20260509131652 21 53 8.0 17.7 0.00 0.00 0.00 72 1009.0
20260509131544 21 86 3.2 17.7 0.00 0.00 0.00 72 1009.1
20260509131509 21 92 3.2 17.7 0.00 0.00 0.00 71 1009.0
20260509131425 21 77 3.2 17.7 0.00 0.00 0.00 71 1009.0
20260509131308 21 61 11.3 17.7 0.00 0.00 0.00 70 1009.1
20260509131123 21 127 6.4 17.7 0.00 0.00 0.00 71 1009.1
20260509130941 21 107 6.4 17.7 0.00 0.00 0.00 70 1009.2
20260509130823 21 116 9.7 17.7 0.00 0.00 0.00 70 1009.1
20260509130729 21 96 9.7 17.7 0.00 0.00 0.00 70 1009.2
20260509130632 21 115 12.9 17.7 0.00 0.00 0.00 70 1009.2
20260509130451 21 107 8.0 17.7 0.00 0.00 0.00 71 1009.2
20260509125708 21 125 8.0 17.7 0.00 0.00 0.00 72 1009.3
20260509125540 21 87 12.9 17.7 0.00 0.00 0.00 70 1009.3
20260509125423 21 83 9.7 17.7 0.00 0.00 0.00 71 1009.4
20260509125330 21 121 6.4 17.7 0.00 0.00 0.00 72 1009.4
20260509125155 21 111 11.3 16.1 0.00 0.00 0.00 70 1009.4
20260509124801 21 108 11.3 16.1 0.00 0.00 0.00 70 1009.4
20260509124621 21 132 6.4 16.1 0.00 0.00 0.00 71 1009.4
20260509124442 21 67 8.0 16.1 0.00 0.00 0.00 71 1009.4
20260509124346 21 119 9.7 16.1 0.00 0.00 0.00 70 1009.5
20260509124256 21 84 11.3 16.1 0.00 0.00 0.00 70 1009.4
20260509124117 21 113 9.7 16.1 0.00 0.00 0.00 71 1009.5
20260509123743 21 68 8.0 16.1 0.00 0.00 0.00 72 1009.5
20260509123608 21 137 8.0 17.7 0.00 0.00 0.00 72 1009.5
20260509123425 21 82 11.3 17.7 0.00 0.00 0.00 72 1009.5
20260509123342 21 46 9.7 17.7 0.00 0.00 0.00 71 1009.6
20260509122931 21 98 9.7 19.3 0.00 0.00 0.00 72 1009.5
20260509122746 21 123 11.3 19.3 0.00 0.00 0.00 72 1009.6
20260509122605 21 90 9.7 19.3 0.00 0.00 0.00 73 1009.6
20260509122154 21 105 12.9 19.3 0.00 0.00 0.00 72 1009.5
20260509122022 20 79 9.7 17.7 0.00 0.00 0.00 73 1009.6
20260509121758 20 80 12.9 17.7 0.00 0.00 0.00 73 1009.5
20260509121332 20 76 9.7 16.1 0.00 0.00 0.00 72 1009.7
20260509120735 20 169 11.3 17.7 0.00 0.00 0.00 71 1009.7
20260509120603 20 117 9.7 17.7 0.00 0.00 0.00 71 1009.7
20260509120427 20 94 9.7 19.3 0.00 0.00 0.00 72 1009.7
20260509120341 20 100 8.0 19.3 0.00 0.00 0.00 72 1009.7
20260509120247 20 123 11.3 19.3 0.00 0.00 0.00 72 1009.7
20260509120107 20 105 8.0 19.3 0.00 0.00 0.00 71 1009.7
20260509115600 20 134 14.5 19.3 0.00 0.00 0.00 70 1009.7
20260509115420 20 49 11.3 19.3 0.00 0.00 0.00 71 1009.7
20260509115324 20 116 9.7 19.3 0.00 0.00 0.00 71 1009.7
20260509115230 20 136 9.7 19.3 0.00 0.00 0.00 71 1009.7
20260509115107 20 96 12.9 19.3 0.00 0.00 0.00 72 1009.7
20260509114631 20 86 8.0 19.3 0.00 0.00 0.00 73 1009.7
20260509113946 20 121 11.3 20.9 0.00 0.00 0.00 74 1009.7
20260509113812 20 96 12.9 20.9 0.00 0.00 0.00 74 1009.7
20260509113623 20 82 12.9 20.9 0.00 0.00 0.00 74 1009.7
20260509113439 20 132 14.5 20.9 0.00 0.00 0.00 74 1009.7
20260509113259 20 70 12.9 19.3 0.00 0.00 0.00 75 1009.7
20260509113203 20 60 12.9 19.3 0.00 0.00 0.00 75 1009.7
20260509113109 20 65 9.7 19.3 0.00 0.00 0.00 76 1009.7
20260509112931 20 57 8.0 17.7 0.00 0.00 0.00 77 1009.7
20260509112754 20 46 9.7 17.7 0.00 0.00 0.00 76 1009.7
20260509112614 20 77 11.3 19.3 0.00 0.00 0.00 75 1009.6
20260509112435 20 78 11.3 19.3 0.00 0.00 0.00 76 1009.7
20260509112343 20 113 12.9 19.3 0.00 0.00 0.00 75 1009.6
20260509112258 20 102 11.3 19.3 0.00 0.00 0.00 75 1009.6
20260509111812 20 92 11.3 20.9 0.00 0.00 0.00 75 1009.6
20260509111247 20 111 14.5 20.9 0.00 0.00 0.00 77 1009.6
20260509111148 20 71 14.5 20.9 0.00 0.00 0.00 76 1009.6
20260509111054 20 80 11.3 20.9 0.00 0.00 0.00 76 1009.6
20260509110918 20 65 14.5 19.3 0.00 0.00 0.00 76 1009.7
20260509110724 20 118 8.0 17.7 0.00 0.00 0.00 78 1009.7
20260509110550 20 134 6.4 20.9 0.00 0.00 0.00 78 1009.6
20260509110130 19 99 11.3 20.9 0.00 0.00 0.00 77 1009.7
20260509105954 20 109 14.5 20.9 0.00 0.00 0.00 77 1009.7
20260509105445 19 71 11.3 19.3 0.00 0.00 0.00 77 1009.6
20260509105306 19 104 9.7 20.9 0.00 0.00 0.00 77 1009.7
20260509105209 19 76 8.0 20.9 0.00 0.00 0.00 77 1009.7
20260509104738 19 99 11.3 22.5 0.00 0.00 0.00 78 1009.7
20260509104545 19 103 11.3 22.5 0.00 0.00 0.00 78 1009.7
20260509104404 19 74 12.9 22.5 0.00 0.00 0.00 77 1009.7
20260509104228 19 109 14.5 22.5 0.00 0.00 0.00 78 1009.7
20260509104133 19 61 14.5 22.5 0.00 0.00 0.00 77 1009.8
20260509104039 19 81 12.9 20.9 0.00 0.00 0.00 77 1009.7
20260509103859 19 78 11.3 20.9 0.00 0.00 0.00 78 1009.8
20260509103719 19 88 12.9 20.9 0.00 0.00 0.00 77 1009.7
20260509103202 19 111 11.3 17.7 0.00 0.00 0.00 77 1009.8
20260509102813 19 98 8.0 17.7 0.00 0.00 0.00 79 1009.9
20260509102630 19 49 11.3 17.7 0.00 0.00 0.00 79 1009.9
20260509102449 19 83 12.9 17.7 0.00 0.00 0.00 78 1009.9
20260509102441 19 83 12.9 17.7 0.00 0.00 0.00 78 1009.9
20260509102259 19 109 9.7 17.7 0.00 0.00 0.00 80 1010.0
20260509102128 18 89 9.7 16.1 0.00 0.00 0.00 81 1010.1
20260509102016 18 67 9.7 14.5 0.00 0.00 0.00 81 1010.1
20260509101927 18 88 9.7 14.5 0.00 0.00 0.00 81 1010.2
20260509101739 18 96 6.4 12.9 0.00 0.00 0.00 81 1010.2
20260509101558 18 107 8.0 12.9 0.00 0.00 0.00 81 1010.2
20260509101545 18 76 8.0 12.9 0.00 0.00 0.00 81 1010.2
20260509101405 18 78 8.0 12.9 0.00 0.00 0.00 81 1010.1
20260509101234 18 63 6.4 12.9 0.00 0.00 0.00 81 1010.2
20260509101107 18 131 6.4 11.3 0.00 0.00 0.00 81 1010.1
20260509101021 18 96 4.8 11.3 0.00 0.00 0.00 81 1010.1
20260509100843 18 73 6.4 14.5 0.00 0.00 0.00 81 1010.2
20260509100706 18 65 4.8 14.5 0.00 0.00 0.00 82 1010.2
20260509100644 18 74 4.8 14.5 0.00 0.00 0.00 82 1010.2
20260509100518 18 111 6.4 14.5 0.00 0.00 0.00 82 1010.2
20260509100047 18 61 8.0 16.1 0.00 0.00 0.00 82 1010.3
20260509100001 18 115 8.0 16.1 0.00 0.00 0.00 82 1010.2
20260509095824 18 81 6.4 17.7 0.00 0.00 0.00 81 1010.1
20260509095644 18 98 6.4 17.7 0.00 0.00 0.00 82 1010.3
20260509095620 18 80 6.4 17.7 0.00 0.00 0.00 82 1010.3
20260509095456 18 48 6.4 17.7 0.00 0.00 0.00 82 1010.2
20260509095315 18 82 8.0 17.7 0.00 0.00 0.00 82 1010.3
20260509095200 17 42 9.7 17.7 0.00 0.00 0.00 82 1010.2
20260509095121 17 95 8.0 17.7 0.00 0.00 0.00 82 1010.2
20260509094715 17 65 6.4 17.7 0.00 0.00 0.00 83 1010.2
20260509094648 17 49 6.4 17.7 0.00 0.00 0.00 83 1010.2
20260509093842 17 80 4.8 16.1 0.00 0.00 0.00 86 1010.3
20260509093641 17 63 6.4 16.1 0.00 0.00 0.00 85 1010.3
20260509093612 17 128 8.0 16.1 0.00 0.00 0.00 85 1010.3
20260509093452 17 125 9.7 16.1 0.00 0.00 0.00 86 1010.3
20260509093312 17 52 11.3 16.1 0.00 0.00 0.00 86 1010.3
20260509092942 16 65 9.7 16.1 0.00 0.00 0.00 87 1010.3
20260509092808 16 75 9.7 16.1 0.00 0.00 0.00 87 1010.3
20260509092621 16 97 9.7 16.1 0.00 0.00 0.00 87 1010.4
20260509092550 16 76 9.7 16.1 0.00 0.00 0.00 88 1010.4
20260509092439 16 47 9.7 16.1 0.00 0.00 0.00 88 1010.4
20260509092258 16 81 8.0 16.1 0.00 0.00 0.00 89 1010.4
20260509092129 16 81 6.4 16.1 0.00 0.00 0.00 90 1010.4
20260509092103 16 130 6.4 16.1 0.00 0.00 0.00 90 1010.4
20260509091641 16 69 6.4 16.1 0.00 0.00 0.00 92 1010.4
20260509091607 16 74 6.4 16.1 0.00 0.00 0.00 92 1010.5
20260509091449 16 44 6.4 16.1 0.00 0.00 0.00 92 1010.4
20260509091305 15 82 9.7 16.1 0.00 0.00 0.00 92 1010.4
20260509090952 15 69 6.4 16.1 0.00 0.00 0.00 92 1010.5
20260509090807 15 70 9.7 16.1 0.00 0.00 0.00 92 1010.5
20260509090628 15 32 8.0 16.1 0.00 0.00 0.00 92 1010.5
20260509090554 15 57 8.0 16.1 0.00 0.00 0.00 92 1010.6
20260509090434 15 59 9.7 16.1 0.00 0.00 0.00 93 1010.6
20260509090256 15 27 8.0 16.1 0.00 0.00 0.00 93 1010.6
20260509085832 15 88 6.4 12.9 0.00 0.00 0.00 93 1010.7
20260509085646 15 65 6.4 12.9 0.00 0.00 0.00 93 1010.8
20260509085617 15 73 6.4 12.9 0.00 0.00 0.00 93 1010.7
20260509085200 14 51 6.4 14.5 0.00 0.00 0.00 93 1010.7
20260509085044 14 69 8.0 14.5 0.00 0.00 0.00 93 1010.8
20260509085009 14 58 8.0 14.5 0.00 0.00 0.00 94 1010.8
20260509084828 14 44 6.4 14.5 0.00 0.00 0.00 94 1010.8
20260509084423 14 46 4.8 16.1 0.00 0.00 0.00 95 1010.8
20260509084035 14 74 6.4 16.1 0.00 0.00 0.00 94 1010.8
20260509084002 14 113 6.4 16.1 0.00 0.00 0.00 94 1010.8
20260509083823 14 84 8.0 16.1 0.00 0.00 0.00 94 1010.9
20260509083636 14 105 11.3 16.1 0.00 0.00 0.00 95 1010.9
20260509082747 14 61 9.7 14.5 0.00 0.00 0.00 95 1010.9
20260509082602 14 67 6.4 14.5 0.00 0.00 0.00 95 1011.0
20260509082421 13 57 8.0 14.5 0.00 0.00 0.00 95 1010.8
20260509082025 13 101 8.0 14.5 0.00 0.00 0.00 95 1010.8
20260509081825 13 71 8.0 14.5 0.00 0.00 0.00 95 1010.8
20260509081711 13 75 9.7 14.5 0.00 0.00 0.00 95 1010.8
20260509081635 13 94 9.7 14.5 0.00 0.00 0.00 95 1010.9
20260509081451 13 63 8.0 14.5 0.00 0.00 0.00 95 1010.8
20260509081251 13 84 6.4 12.9 0.00 0.00 0.00 96 1010.9
20260509081231 13 65 6.4 12.9 0.00 0.00 0.00 96 1010.8
20260509081101 13 61 8.0 12.9 0.00 0.00 0.00 95 1010.9
20260509080930 13 106 8.0 12.9 0.00 0.00 0.00 96 1010.9
20260509080532 13 102 6.4 11.3 0.00 0.00 0.00 96 1010.9
20260509080349 13 102 6.4 11.3 0.00 0.00 0.00 96 1010.8
20260509080152 13 110 6.4 11.3 0.00 0.00 0.00 96 1010.8
20260509080135 13 122 6.4 11.3 0.00 0.00 0.00 96 1010.8
20260509080007 13 80 6.4 12.9 0.00 0.00 0.00 96 1010.8
20260509075804 13 95 4.8 12.9 0.00 0.00 0.00 96 1010.8
20260509075408 13 90 4.8 12.9 0.00 0.00 0.00 96 1010.8
20260509074831 13 124 6.4 14.5 0.00 0.00 0.00 97 1010.7
20260509074814 13 107 8.0 14.5 0.00 0.00 0.00 97 1010.7
20260509074639 13 86 6.4 14.5 0.00 0.00 0.00 97 1010.7
20260509074438 13 80 4.8 14.5 0.00 0.00 0.00 97 1010.6
20260509074337 13 113 6.4 14.5 0.00 0.00 0.00 97 1010.6
20260509074247 13 86 6.4 14.5 0.00 0.00 0.00 97 1010.6
20260509074050 13 72 4.8 16.1 0.00 0.00 0.00 97 1010.6
20260509073907 13 65 6.4 16.1 0.00 0.00 0.00 97 1010.5
20260509073859 13 65 6.4 16.1 0.00 0.00 0.00 97 1010.5
20260509073715 13 71 6.4 16.1 0.00 0.00 0.00 97 1010.5
20260509073518 13 111 11.3 16.1 0.00 0.00 0.00 97 1010.5
20260509073422 13 66 9.7 16.1 0.00 0.00 0.00 97 1010.4
20260509072529 13 83 6.4 11.3 0.00 0.00 0.00 97 1010.4
20260509072135 13 89 4.8 12.9 0.00 0.00 0.00 97 1010.5
20260509071944 13 103 6.4 12.9 0.00 0.00 0.00 97 1010.5
20260509071837 13 112 4.8 12.9 0.00 0.00 0.00 97 1010.5
20260509071755 13 109 3.2 12.9 0.00 0.00 0.00 98 1010.5
20260509071208 13 71 6.4 12.9 0.00 0.00 0.00 97 1010.6
20260509071145 13 82 6.4 12.9 0.00 0.00 0.00 97 1010.5
20260509070608 13 77 6.4 12.9 0.00 0.00 0.00 98 1010.4
20260509070456 13 98 8.0 12.9 0.00 0.00 0.00 98 1010.5
20260509070415 13 46 6.4 12.9 0.00 0.00 0.00 97 1010.5
20260509070228 13 53 8.0 14.5 0.00 0.00 0.00 97 1010.4
20260509070047 13 67 6.4 14.5 0.00 0.00 0.00 97 1010.5
20260509070030 13 80 6.4 14.5 0.00 0.00 0.00 97 1010.4